Terminal Aerodrome Forecast
Issued by NWS

Current Version | Previous Version | Text Only | Print | Product List | Glossary On
Versions: 1 2 3 4 5 6 7 8 9 10 11 12 13 14 15 16 17 18
000
FTUS45 KBOI 230247 AAA
TAFJER
TAF AMD
KJER 230247Z 2303/2324 18008KT P6SM VCSH OVC040
     FM231800 25012G18KT 2SM -SN BR OVC020
      TEMPO 2320/2324 1SM -SN BR OVC010=

USA.gov is the U.S. government's official web portal to all federal, state and local government web resources and services.